Regional Weather Roundup
Issued by NWS Wakefield, VA

Home | Current Version | Previous Version | Text Only | Print | Product List | Glossary Off
Versions: 1 2 3 4 5 6 7 8 9 10 11 12 13 14 15 16 17 18 19 20 21 22 23 24 25 26 27 28 29 30 31 32 33 34 35 36 37 38 39 40 41 42 43 44 45 46 47 48
000 ASUS41 KAKQ 191214 RWRAKQ REGIONAL WEATHER ROUNDUP NATIONAL WEATHER SERVICE WAKEFIELD VA 800 AM EDT SUN APR 19 2015 Note: "fair" indicates few or no clouds below 12,000 feet with no significant weather and/or obstructions to visibility. * = Denotes station may not report precipitation (e.g., rain,snow,etc.), thunder or fog. VAZ042-051-052>054-056-191300- NORTHERN VIRGINIA CITY SKY/WX TMP DP RH WIND PRES REMARKS WASH NATIONAL CLOUDY 63 36 36 NE9 30.15R DULLES PTSUNNY 60 33 36 E9 30.14R FORT BELVOIR PTSUNNY 61 40 46 VRB2 30.14R QUANTICO PTSUNNY 62 42 47 E10 30.14R FREDERICKSBRG* MOSUNNY 62 47 58 E9 30.11R STAFFORD* PTSUNNY 60 42 51 E13G18 30.16R WARRENTON PTSUNNY 61 46 58 E9G16 30.12R CULPEPER* PTSUNNY 61 48 63 NE3 30.12R MANASSAS* SUNNY 61 37 41 E8 30.14R LEESBURG* PTSUNNY 59 37 44 NE6 30.16R WINCHESTER PTSUNNY 55 30 38 N3 30.14R FRONT ROYAL* FAIR 54 41 62 CALM 30.13R LURAY* FAIR 55 45 67 NE8 30.12R $$ VAZ048-049-060>072-079>083-191300- CENTRAL AND SOUTH CENTRAL VIRGINIA CITY SKY/WX TMP DP RH WIND PRES REMARKS RICHMOND PTSUNNY 60 57 89 E8 30.08R CHESTERFIELD* NOT AVBL PETERSBURG* CLOUDY 60 59 97 NE7 30.08R FOG HANOVER MOSUNNY 59 55 87 VRB5 30.10R TAPPAHANNOCK* MOSUNNY 61 51 71 NE7G17 30.11R QUINTON* FAIR 59 57 92 E5 30.08S CHARLOTTSVILLE PTSUNNY 59 44 57 NE12 30.08R GORDONSVILLE* CLOUDY 58 48 70 NE3 30.09S ORANGE* CLOUDY 59 50 72 N6 30.11S LOUISA* CLOUDY 61 54 77 NE5 30.08R BUMPASS* FAIR 59 52 77 E6 30.09S FARMVILLE* MOSUNNY 60 60 100 N3 30.04R CREWE* CLOUDY 57 56 95 NE5 30.05R VSB<1/4 FORT PICKETT* CLOUDY 59 58 97 CALM 30.04F VSB 1/2 CHASE CITY* CLOUDY 64 64 100 CALM 30.04R CLARKSVILLE* FAIR 63 63 100 CALM 30.03R SOUTH HILL* CLOUDY 60 59 99 CALM 30.09S LAWRENCEVILLE* FAIR 59 59 100 NE3 30.04R EMPORIA* PTSUNNY 57 57 100 CALM 30.07R FOG $$ VAZ088>098-191300- SOUTHEAST VIRGINIA CITY SKY/WX TMP DP RH WIND PRES REMARKS NORFOLK MOSUNNY 58 55 90 NE14G20 30.09R VIRGINIA BEACH MOSUNNY 62 56 80 NE13 30.08S NORFOLK NAVAL MOSUNNY 64 57 78 E12 30.11R WEST POINT* SUNNY 61 59 93 NE5 30.11R SALUDA* FAIR 60 55 83 E10 30.11R NEWPORT NEWS SUNNY 62 58 86 E12 30.10R FOG LANGLEY AFB SUNNY 60 59 97 NE9 30.08R FOG FORT EUSTIS SUNNY 61 N/A N/A E10G17 30.07R FOG WILLIAMSBURG* SUNNY 63 61 94 E5 30.10R HR EXEC AP* FAIR 61 57 88 E8G16 30.10R FRANKLIN* MOSUNNY N/A N/A N/A NE14 30.08R WAKEFIELD MOSUNNY 60 58 92 VRB5 30.08R FOG $$ VAZ020-022-025-037-045-191300- WEST CENTRAL AND SOUTHWEST VIRGINIA CITY SKY/WX TMP DP RH WIND PRES REMARKS STAUNTON* PTSUNNY 55 45 69 N9 30.11R WAYNESBORO* FAIR 52 47 83 CALM 30.10R HOT SPRINGS VA PTSUNNY 56 50 78 E10G17 30.09S LYNCHBURG CLOUDY 62 59 90 NE5 30.06R DANVILLE CLOUDY 64 61 90 E5 30.03R SOUTH BOSTON* PTSUNNY 63 61 95 CALM 30.04R MARTINSVILLE CLOUDY 63 63 100 CALM 30.05R ROANOKE CLOUDY 62 56 80 NE3 30.05S BLACKSBURG CLOUDY 59 54 84 E5 30.07R DUBLIN* CLOUDY 60 58 92 CALM 30.04S MARION* RAIN 60 57 91 E9 30.03S HILLSVILLE* DRIZZLE 59 59 99 E8 30.03S RICHLANDS* DRIZZLE 62 55 80 SE14G22 29.96F WISE* CLOUDY 63 52 67 SE6 29.95S ABINGDON* CLOUDY 66 58 75 E10 29.93S $$ MDZ021>025-VAZ099-100-191300- SOUTHERN MARYLAND AND THE DELMARVA PENINSULA CITY SKY/WX TMP DP RH WIND PRES REMARKS PATUXENT RIVER PTSUNNY 58 41 53 E10 30.14R BAY BRIDGE APT N/A 59 34 38 E13 30.16R LEONARDTOWN PTSUNNY 59 36 41 E12G20 30.16R DOVER PTSUNNY 54 46 74 E15G22 30.16R GEORGETOWN MOSUNNY 55 43 63 E13 30.18R EASTON NOT AVBL CAMBRIDGE NOT AVBL SALISBURY PTSUNNY 56 43 61 E10 30.14R OCEAN CITY PTSUNNY 53 45 74 NE14 30.15R WALLOPS ISLAND PTSUNNY 58 48 69 NE18 30.13R ACCOMACK* MOSUNNY 59 43 55 E15G21 30.11R $$ NCZ012>017-030>032-191300- NORTH CENTRAL AND EASTERN NORTH CAROLINA CITY SKY/WX TMP DP RH WIND PRES REMARKS ROANOKE RAPIDS CLOUDY 61 61 100 CALM 30.04R FOG RALEIGH CLOUDY 65 63 93 E6 30.03R ELIZABETH CITY MOSUNNY 61 59 93 NE13 30.08R AHOSKIE* CLOUDY 60 59 97 CALM 30.05S EDENTON* MOSUNNY 59 59 98 E5 30.05R CURRITUCK* PTSUNNY 60 58 94 NE10G18 30.09R KILL DEVIL HLS FOG 55 55 100 NE7 30.07R VSB 1/2 MANTEO PTSUNNY 60 59 96 E6 30.06R CAPE HATTERAS MOSUNNY 63 61 93 NE5 30.04R TARBORO* CLOUDY 62 62 97 CALM 30.04S FOG GOLDSBORO CLOUDY 65 64 98 E6 30.01R FOG WASHINGTON PTSUNNY 63 63 98 CALM 30.04R FOG GREENVILLE RAIN 64 64 100 E3 30.05R VSB 1/4 NEW BERN CLOUDY 67 65 93 E7 30.04S WILMINGTON CLOUDY 67 65 93 E5 30.00R $$ VAZ048-191300- ELSEWHERE CITY SKY/WX TMP DP RH WIND PRES REMARKS HARRISBURG PA CLOUDY 55 27 34 CALM 30.18S BALTIMORE CLOUDY 59 34 39 E14 30.16R ANNAPOLIS CLOUDY 59 35 40 E7 30.16R ANDREWS AFB PTSUNNY 59 50 72 NE3 30.04S HAZE PHILADELPHIA PTSUNNY 56 37 49 E10 30.22R HENDERSON NC CLOUDY 64 62 94 CALM 30.04R GREENSBORO CLOUDY 64 63 94 E7 30.00R ROCKY MOUNT FOG 65 64 97 CALM 30.03R VSB 1/4 $$ VAZ100-191300- MARINE STATION/POSITION TIME TEMP WIND PRES WAVE SWELL AIR SEA DIR/SP/G HT/PER HT/PER (UTC) (F) (DEG/KT/KT) (MB) (FT/S) (FT/S) CAPE MAY NJ 1100 53 54 70/ 12/ 21 1020.6R LEWES DE 1100 51 50 90/ 16/ 20 1020.7R 15NM E FENWICK I 1150 51 49 1020.5R 3/ 8 OCEAN-CITY-INLET 1100 53 52 60/ 7/ 11 1020.1R WACHAPREAGUE VA 1100 58 63 40/ 12/ 14 1019.1R THOMAS POINT MD 1200 59 53 70/ 14/ 17 1022.0R GOOSES REEF MD 1200 58 56 90/ 14/ 17 N/A 0 COVE POINT MD 1100 59 100/ 16/ 19 1019.5R SOLOMONS ISLAND 1100 56 N/A BISHOPS HEAD MD 1100 60 64 70/ 16/ 20 1019.1R PINEY POINT MD 1124 90/ 14/ 17 N/A CAMBRIDGE MD 1100 60 59 70/ 19/ 24 1019.8R LEWISETTA VA 1100 60 62 1019.1R RAPPAHANNOCK LGT 1100 50/ 12/ 12 1019.2R STINGRAY PT 1200 59 58 80/ 14/ 16 1019.9R YORK RVR RNG VA 1100 58 50/ 13/ 15 1017.9R YORKTOWN VA 1100 61 59 60/ 8/ 10 1018.3R DOMINION TERM VA 1100 60 40/ 6/ 10 1018.2R KIPTOPEKE VA 1100 60 60/ 9/ 12 N/A CHES BAY BRIDGE 1100 58 55 40/ 14/ 16 1017.7R CAPE HENRY VA 1100 56 40/ 16/ 19 1017.1R CHESAPEAKE LGHT 1100 54 50/ 20/ 21 1018.7R WILLOUBY STN VA 1100 58 40/ 10/ 14 1018.7R S CRANEY ISL VA 1100 50/ 8/ 12 1017.9R CAPE HENRY BUOY 1128 54 N/A 3/ 7 2/13 1ST LANDING BUOY 1200 55 50/ 12/ 14 1018.5R 2/ 3 OFFSHORE WE BUOY 1111 50 N/A 3/ 7 2/11 64NM E OF VA BCH 1150 61 56 40/ 16/ 17 1017.6R 3/ 8 3/ 8 DUCK PIER NC 1100 53 56 30/ 4/ 5 1016.2R 44056 DUCK FRF 1111 55 N/A 3/ 7 2/13 OREGON INLET NC 1100 55 60 20/ 5/ 6 1016.9R HATTERAS NC 1100 65 66 50/ 5/ 7 1016.1R DIAMOND SHLS NC 1150 72 76 70/ 10/ 12 1016.7R 4/12 3/12 CAPE LOOKOUT NC 1200 67 60/ 5/ 6 1016.1R $$

USA.gov is the U.S. government's official web portal to all federal, state and local government web resources and services.